Regional Weather Roundup
Issued by NWS

Home | Current Version | Previous Version | Graphics & Text | Print | Product List | Glossary On
Versions: 1 2 3 4 5 6 7 8 9 10 11 12 13 14 15 16 17 18 19 20 21 22 23 24 25 26 27 28 29 30 31 32 33 34 35 36 37 38 39 40 41 42 43 44 45 46 47 48 49 50
000
ASUS43 KMKX 231400
RWRWI

WISCONSIN REGIONAL WEATHER ROUNDUP
NATIONAL WEATHER SERVICE MILWAUKEE/SULLIVAN WI
800 AM CST THU FEB 23 2017

NOTE: "FAIR" INDICATES FEW OR NO CLOUDS BELOW 12,000 FEET WITH NO
SIGNIFICANT WEATHER AND/OR OBSTRUCTIONS TO VISIBILITY.

WIZ001-002-006>008-014>016-023>028-231500-
NORTHWEST WISCONSIN

CITY           SKY/WX    TMP DP  RH WIND       PRES   REMARKS
SUPERIOR ARPT  MOCLDY    29  24  81 NW7       29.95R WCI  22
ASHLAND        PTCLDY    28  24  85 NW7       29.91R WCI  21
HAYWARD        CLOUDY    31  25  78 N8        29.89R WCI  23
SIREN          PTCLDY    28  25  89 N5        29.92R WCI  22
CUMBERLAND     CLOUDY    30  27  86 N6        29.88R WCI  24
RICE LAKE      CLOUDY    32  28  86 N8        29.90S WCI  25
CHETEK         CLOUDY    32  28  86 CALM      29.88S
LADYSMITH      CLOUDY    33  29  85 N12       29.88R WCI  25
EAU CLAIRE     NOT AVBL
MENOMONIE      CLOUDY    35  30  83 N10       29.87F WCI  27
NEW RICHMOND   CLOUDY    32  27  83 N9        29.89S WCI  24
OSCEOLA        CLOUDY    31  27  82 N7        29.94S WCI  25
$$

WIZ003>005-009-010-017-018-231500-
NORTH CENTRAL WISCONSIN

CITY           SKY/WX    TMP DP  RH WIND       PRES   REMARKS
MANITOWISH WTR CLOUDY    29  29 100 N7        29.80F WCI  22
ARBOR VITAE    CLOUDY    32  30  92 N8          N/A  WCI  25
WOODRUFF       CLOUDY    32  30  92 N8          N/A  WCI  25
RHINELANDER    CLOUDY    31  27  85 N5        29.84R WCI  26
EAGLE RIVER    CLOUDY    28  27  95 N10       29.79F WCI  19
LAND O LAKES   CLOUDY    29  26  90 N10       29.81F WCI  20
PHILLIPS       CLOUDY    30  29  95 N3        29.85R
TOMAHAWK       CLOUDY    32  28  84 NE5       29.84R WCI  27
MEDFORD        CLOUDY    32  29  88 N7        29.83R WCI  25
MERRILL        NOT AVBL
$$

WIZ029-030-035-036-043>047-231500-
CENTRAL WISCONSIN

CITY           SKY/WX    TMP DP  RH WIND       PRES   REMARKS
WAUSAU         CLOUDY    34  27  75 N9        29.83R WCI  27
MOSINEE        PTSUNNY   34  30  86 N13G18    29.85R WCI  25
MARSHFIELD     CLOUDY    34  27  75 NE14G20   29.81S WCI  25
STEVENS POINT  CLOUDY    33  29  86 N12G17    29.84R WCI  24
WAUPACA        PTSUNNY   39  32  74 NW9       29.84R WCI  33
WAUTOMA        CLOUDY    38  32  79 N9        29.83R WCI  31
WISC RAPIDS    CLOUDY    36  30  79 N12G20    29.83S WCI  28
CAMP DOUGLAS   NOT AVBL
$$

WIZ011>013-019>022-031-037>040-048>050-231500-
NORTHEAST WISCONSIN

CITY           SKY/WX    TMP DP  RH WIND       PRES   REMARKS
ANTIGO         CLOUDY    31  28  88 N9        29.82R WCI  23
SHAWANO        CLOUDY    37  31  81 N5        29.84R WCI  33
OCONTO         CLOUDY    35  29  79 N8        29.84R WCI  29
STURGEON BAY   CLOUDY    35  30  82 N14       29.83R WCI  26
GREEN BAY      CLOUDY    39  33  79 N10       29.82R WCI  32
MANITOWOC      NOT AVBL
APPLETON       PTSUNNY   37  30  75 N7        29.79R WCI  32
CLINTONVILLE   MOSUNNY   37  30  75 N7        29.84R WCI  32
OSHKOSH        CLOUDY    40  34  79 N9        29.80R WCI  34
$$

WIZ032>034-041-042-053>061-231500-
SOUTHWEST WISCONSIN

CITY           SKY/WX    TMP DP  RH WIND       PRES   REMARKS
LA CROSSE      CLOUDY    41  31  67 N5        29.86R
SPARTA         MOSUNNY   38  32  79 N8        29.85R WCI  32
VIROQUA        CLOUDY    37  32  84 N8        29.83R WCI  30
BOSCOBEL       CLOUDY    42  33  70 N10       29.83R
PRAIRIE DU CHI CLOUDY    41  33  73 NW8       29.83R
PLATTEVILLE    CLOUDY    41  38  91 N13       29.80R
$$

WIZ056-057-062-063-064-067-068-231500-
SOUTH CENTRAL WISCONSIN

CITY           SKY/WX    TMP DP  RH WIND       PRES   REMARKS
REEDSBURG      CLOUDY    38  33  80 N10       29.83R WCI  32
BARABOO/DELLS  CLOUDY    39  32  78 N8G17     29.80R WCI  33
LONE ROCK      NOT AVBL
MINERAL POINT  CLOUDY    43  37  81 N7        29.80R
MADISON        CLOUDY    40  35  83 N10       29.80R WCI  33
MIDDLETON      CLOUDY    42  37  81 N14       29.82R
WATERTOWN      CLOUDY    42  40  91 N10G16    29.78R
MONROE         MOSUNNY   43  36  75 N12       29.77R
JANESVILLE     PTSUNNY   45  43  93 NW6       29.77R
$$

WIZ051-052-058>065-066-070>072-231500-
SOUTHEAST WISCONSIN

CITY           SKY/WX    TMP DP  RH WIND       PRES   REMARKS
MILWAUKEE      CLOUDY    42  37  82 NE16      29.77R
WAUKESHA       CLOUDY    43  37  81 NW16      29.77R
MILWAUKEE/TIMM CLOUDY    45  37  76 N8        29.79R
RACINE         CLOUDY    47  38  71 N15G21    29.77R
KENOSHA        PTSUNNY   46  40  79 N5        29.76R
FOND DU LAC    CLOUDY    40  34  79 N12       29.81R WCI  33
SHEBOYGAN      NOT AVBL
WEST BEND      CLOUDY    41  39  93 NE6       29.78R
JUNEAU         DRIZZLE   40  38  96 N9        29.80R WCI  33
$$

LSZ147-162-231500-
LAKE SUPERIOR

STATION/POSITION TIME  TEMP    WIND        PRES    WAVE
                       AIR SEA DIR/SP/G            HT/PER
                 (UTC) (F)     (DEG/KT/KT) (MB)    (FT/S)
DEVILS ISLAND    1300   30     310/  8/  8 1013.5R
PORT WING        1340   31     350/ 10/ 15 1013.5S
SAXON HARBOR     1340   33     320/ 10/ 11 1012.5R
$$

LMZ867-665-643>646-231500-
LAKE MICHIGAN

STATION/POSITION TIME  TEMP    WIND        PRES    WAVE
                       AIR SEA DIR/SP/G            HT/PER
                 (UTC) (F)     (DEG/KT/KT) (MB)    (FT/S)
CHAMBERS ISLAND  1340   35     320/ 12/ 14 1009.5R
NORTHPORT PIER   1340   34     330/ 16/ 21 1009.5R
SISTER BAY       1305   34     350/ 18/ 22   N/A
KEWAUNEE LAKESHO 1330   37     360/  5/  9 1008.4R
SHEBOYGAN LAKESH 1300   40     340/ 12/ 13 1008.1R
PORT WASHINGTON  1340   42     340/  5/  9 1009.5R
MILWAUKEE LAKESH 1330   39      40/ 13/ 14   N/A
KENOSHA   LAKESH 1300   46     330/ 10/ 12 1007.5
$$

TC  - TEMPERATURE IN CELSIUS
VSB - VISIBILITY IN STATUTE MILES
WCI - WIND CHILL INDEX
HX  - HEAT INDEX




USA.gov is the U.S. government's official web portal to all federal, state and local government web resources and services.